User: anonymous   Login
Location: Caltech
(34.1382°N, 118.1253°W)
Time: 17:39:28
(UTC-08:00)
Language:

BREEZE M DEB (TANK) - Orbit

View from above orbital plane
View from above orbital plane
View from above satellite
View from above satellite

Ground track
Ground track

The orbit data is extracted from the following two-line orbital elements,

1 33437U 08057B   15063.06106877  .00004397  00000-0  11801-2 0  9996
2 33437 049.5576 240.0077 5005650 189.0324 183.1311 05.56898092127107
Epoch (UTC): 04 March 2015 01:27:56
Eccentricity: 0.5005650
inclination: 49.5576°
perigee height: 336 km
apogee height: 13796 km
right ascension of ascending node: 240.0077°
argument of perigee: 189.0324°
revolutions per day: 5.56898092
mean anomaly at epoch: 183.1311°
orbit number at epoch: 12710

The dashed part of the orbit path shows where the satellite is in the earth's shadow,  

DLR